User: anonymous   Login
Location: Unspecified
(0.0000°N, 0.0000°E)
Time: 08:04:15
(UTC+00:00)
Language:

Nadezhda 1 - Orbit

View from above orbital plane
View from above orbital plane
View from above satellite
View from above satellite

Ground track
Ground track

The orbit data is extracted from the following two-line orbital elements,

1 20103U 89050A   19346.16528736  .00000038  00000-0  24431-4 0  9998
2 20103  82.9620 258.3569 0036089 263.8385 204.5482 13.74583531526866
Epoch (UTC): 12 December 2019 03:58:00
Eccentricity: 0.0036089
inclination: 82.9620°
perigee height: 956 km
apogee height: 1010 km
right ascension of ascending node: 258.3569°
argument of perigee: 263.8385°
revolutions per day: 13.74583531
mean anomaly at epoch: 204.5482°
orbit number at epoch: 52686

The dashed part of the orbit path shows where the satellite is in the earth's shadow,  

DLR